Погода Максимкин Яр

Погода Максимкин Яр : погода сейчас, прогноз погоды и архив. Всё, что Вы хотите узнать о погоде Максимкин Яр!

Поиск расширенной информации на нашем сайте:

Другие новости

Новости СМИ2

Главная страница сайта

Новости сайта

03.07.2017

Напоминаем, что на нашем специализированном сайте Метеоцентр.Азия вы можете получить высокодетализированные автоматические прогнозы погоды по пунктам России, СНГ и мира в авиационном формате (включающие направление и скорость ветра, видимость, явления погоды, количество и форму облачности, нижнюю и верхнюю границу облачности).


Погода Максимкин Яр - сегодня

Время (UTC), дата Ветер
(°,м/с) 
Видим.   Явления Облачность Т
(°С)
Тd
(°С)
f(%) Тe
(°С)
Pmin
(гПа)
dP
(гПа)
Po
(мм)
O2
(г/м3)
Тmin Tmax R s Состояние
почвы
18 21.07.17 тихо ()   20000 м  {гроза}  3/1 1000 м средняя 
[Sc|Ac trans]
+14 +13.3 96 +20  1013  -0.7  750  285           
21 21.07.17 тихо ()   20000 м    10/6 600 м средняя, верхняя 
[Sc|Ac trans|Ci sp]
+12.9 +12.3 96 +17  1013.4  0.3  751  286           
00 22.07.17 тихо ()   20000 м    9/3 600 м средняя, верхняя 
[Sc|Ac trans|Ci sp]
+14.5 +13.8 96 +21  1013.7  0.4  751  285  +12.6        влажная 
03 22.07.17 тихо ()   20000 м    3/3 600 м верхняя 
[Sc|Ci sp]
+22.2 +14.9 63 +31  1013.7  0.3  751  277           
06 22.07.17 190 (Ю) 20000 м  гроза без осадков{ливн. осадки}  9/9 600 м кучево-дожд. 
[Cb cap]
+20.1 +16.8 81 +32  1013.4  -0.3  751  278           
09 22.07.17 070 (В) 10 км  гроза, ливневой дождь  9/9 600 м кучево-дожд. 
[Cb cap]
+16.9 +16 94 +28  1013.6  0.1  751  282           
12 22.07.17 100 (В) 20000 м  гроза без осадков{ливн. осадки}  9/8 600 м кучево-дожд., средняя 
[Cb cap|Ac As]
+17.1 +16.2 94 +29  1014.6  0.9  752  282    +24.5  33     
15 22.07.17 050 (СВ) 4000 м  дымка{гроза, ливн. осадки}  6/1 600 м средняя, верхняя 
[Sc|Ac As|Ci sp]
+16.4 +15.6 95 +28  1014.3  -0.3  752  282           
18 22.07.17 060 (СВ) 20000 м  {гроза, ливн. осадки}  ясно 
+13.9 +13.1 95 +21  1014.8  0.4  752  286           
21 22.07.17 тихо ()   20000 м    ясно 
+12.4 +11.8 96 +16  1014.8  -0.1  752  287           
00 23.07.17 050 (СВ) 20000 м    4/0 средняя 
[Ac trans]
+14.9 +13.6 92 +22  1014.7  752  284  +12    0.5    влажная 
03 23.07.17 060 (СВ) 20000 м    8/0 средняя 
[Ac trans]
+19.9 +15.3 75 +30  1014.3  -0.2  752  279           
06 23.07.17 090 (В) 20000 м    8/6 600 м верхняя 
[Cu med, cong|Ci fib]
+23.6 +14.2 56 +31  1013.3  -0.8  751  276           
09 23.07.17 080 (В) 20000 м  гроза без осадков{ливн. осадки}  8/8 600 м кучево-дожд., верхняя 
[Cb cap|Ci fib]
+22.3 +15.5 65 +32  1012.6  -0.7  750  276           
12 23.07.17 090 (В) 20000 м  гроза без осадков{ливн. осадки}  10/8 600 м кучево-дожд., верхняя 
[Cb cap|Ci sp]
+21.2 +14.8 67 +30  1012.8  0.1  751  278    +24.7  0.0     
15 23.07.17 тихо ()   20000 м  {гроза}  8/8 600 м средняя 
[Sc|Ac trans]
+18 +16.5 91 +29  1012.8  -0.1  750  280           
18 23.07.17 040 (СВ) 20000 м  {гроза}  8/4 600 м средняя, верхняя 
[Sc|Ac trans|Ci fib]
+15 +13.9 93 +23  1012.6  -0.4  750  284           
21 23.07.17 050 (СВ) 20000 м    10/6 600 м средняя 
[Sc|Ac und]
+15.5 +13.6 88 +23  1011.8  -0.7  750  283           
00 24.07.17 050 (СВ) 20000 м    8/0 средняя 
[Ac As]
+15.9 +13.5 86 +23  1011.6  -0.2  749  283  +15        влажная 
03 24.07.17 060 (СВ) 20000 м    8/0 средняя, верхняя 
[Ac trans|Ci sp]
+22.6 +14.5 60 +30  1010.7  -0.6  749  276           
06 24.07.17 080 (В) 20000 м    9/8 600 м кучево-дожд., верхняя 
[Cb cap|Ci sp]
+24.9 +14 51 +32  1009.5  -1.1  748  273           
09 24.07.17 300 (СЗ) 10 км  гроза, ливневой дождь  10/9 600 м кучево-дожд., верхняя 
[Cb cap|Ci fib]
+18 +16.1 89 +30  1009.4  -0.4  748  279           
12 24.07.17 110 (В) 20000 м  {гроза, ливн. осадки}  10/0 средняя, верхняя 
[Ac trans|Ci sp]
+21.4 +18.5 84 +37  1008.7  -0.5  748  275    +25.4     
15 24.07.17 тихо ()   4000 м  дымка  4/0 средняя 
[Ac trans]
+19 +18.1 95 +34  1008.7  -0.1  747  277           
18 24.07.17 тихо ()   4000 м  дымка  8/0 средняя 
[Ac trans]
+16 +15.3 96 +25  1008  -0.8  747  281           
Время (UTC), дата Ветер
(°,м/с) 
Видим.   Явления Облачность Т
(°С)
Тd
(°С)
f(%) Тe
(°С)
Pmin
(гПа)
dP
(гПа)
Po
(мм)
O2
(г/м3)
Тmin Tmax R s Состояние
почвы

Для получения пояснительной информации подведите курсор к названию столбца.

ПОГОДА Максимкин Яр - архив

Всё, что Вы хотите узнать о погоде Максимкин Яр - удобно и подробно!

Выберите нужную дату (начиная с 1 января 2015* года) и нажмите кнопку "Найти".
Будут отображены архивные сводки погоды по пункту Максимкин Яр, начиная с указанной даты.


Отображать данные в формате CSV (для использования в таблицах Excel)


Внимание! Наш архив погоды предназначен исключительно для личного некоммерческого использования в познавательных целях. Если Вам необходимы официальные справки о состоянии погоды (для производственных, юридических, коммерческих и т.п. целей), обращайтесь в органы Росгидромета.

*Примечание: данная дата относится к архиву по метеостанциям СССР (Россия, СНГ, Балтия).
Архив по метеостанциям Зарубежной Европы и Азии (кроме Китая) хранится 10 дней, по другим регионам земного шара (Китай, Африка, Америка, Австралия, Океания) - 1 день.

Максимкин Яр - район местоположения метеостанции


Название, широта, долгота, высота метеостанции:
Максимкин Яр 58.6°ш. 86.7°д. 105 м над ур. моря [Российская Федерация]

Дополнительная информация

В oтличие oт бoльшинства пoгoдных сайтoв мы публикуем пoдрoбную метеoинфoрмацию в детальнoм прoфессиoнальнoм фoрмате.

Характеристики температуры и влажнoсти вoздуха измеряются на высoте 2 м в тени вдали oт зданий и деревьев.
Скoрoсть ветра измеряется на высoте 10 м (на урoвне рoста челoвека скoрoсть ветра ниже в 1.5-2 раза). Если метеoстанция нахoдится в гoрoде или в лесу, тo скoрoсть ветра занижена на 2-4 м/с пo сравнению с oткрытым местoм. Скoрoсть ветра над акватoриями крупных рек и oзёр, а также на вершинах хoлмoв на 2-5 м/с выше, чем в oбычных услoвиях.
Атмoсфернoе давление в разных тoчках местнoсти мoжет значительнo oтличаться oт давления на метеoстанции, в зависимoсти oт услoвий рельефа (при пoдъёме на 10 м давление пoнижается примернo на 1 мм рт.ст.).